Location: Carthage
(33.8834°N, 106.6595°W)
Time: 12:19:39
(UTC+00:00)

Cosmos 1535 Rocket - Pass Details

Date: 13 February 2026
Orbit: 947 x 1004 km, 83.0° (Epoch: 11 March)

Event Time Altitude Azimuth Distance (km) Brightness Sun altitude
Rises 12:15:43 0° 188° (S) 3,710 7.5 -20.8°
Reaches altitude 10° 12:18:14 10° 190° (S) 2,766 6.8 -20.2°
Maximum altitude 12:24:37 78° 276° (W) 1,028 4.4 -18.9°
Drops below altitude 10° 12:31:00 10° 3° (N) 2,774 6.9 -17.6°
Sets 12:33:33 0° 5° (N) 3,722 7.6 -17.1°
